軌道要素
Epoch 2016 June 21.0 TT = JDT 2457560.5
T 2016 June 28.28385 TT MPCW
q 2.6877910 (2000.0) P Q
n 0.09364632 Peri. 7.25499 +0.01525237 -0.93631038
a 4.8025908 Node 82.33547 +0.89867505 -0.14099045
e 0.4403456 Incl. 20.73247 +0.43834978 +0.32162799
P 10.52
From 70 observations 2015 Sept. 8-2017 Mar. 7, mean residual 0".6.
|